THOR ALTAIR R/B, 1583

Orbit data source: Space-Track

THOR ALTAIR R/B, 1583 is space debris in SSO originally from a launch on Fri, 10 Sep 1965 UTC launched from the Air Force Western Test Range (AFWTR). Debris objects in space refer to the collection of defunct objects orbiting the Earth. Examples of debris include non-operational satellites, rocket bodies, and fragments generated from explosions, collisions, or faulty payload assembly.

Loading next visibility...
Identifier
1583, 1965-072D
Orbit
SSO
Country
Flag of USUS
Related business
Manufacturer
UTC
Mission
Spacecraft
Bus & Motor
FW4, Unknown motor
Mass
25 kg wet, 25 kg dry
Launch date (UTC)
1965-09-10 (60 years ago)
Launch vehicle
Unknown
Launch site
Air Force Western Test Range (AFWTR)
Object type
Payload
Rocket body
Debris
Shape & HBR
Cyl, 0.8 m
Radar Cross Section
0.687 m², Medium (>0.1 m² and < 1m²)

Expand to show TLE details & history
Last TLE update: 23 hours ago

TLE from 23 hours ago
0 THOR ALTAIR R/B
1 01583U 65072D   25259.88502567  .00001553  00000-0  26612-3 0  9995
2 01583  98.4253 123.6481 0143075   7.6345 352.6988 14.63829414126945
Epoch: 2025-09-16T21:14Z
TLE epoch observation values (Epoch: 2025-09-16T21:14:26.217Z)
Latitude
-0.00004°
Longitude
168.96996°
Altitude
583.646 km
Speed
7.622 km/s
True Right ascension
08h 14m 35s
True Declination
0° 00' 00"
Sunlit
Object was in daylight at epoch
Visualization orbit readout
Latitude
Unknown
Longitude
Unknown
Altitude
Unknown
Speed
Unknown
Apparent Right ascension
Unknown
Apparent Declination
Unknown
Sunlit
N/A
Visualization observer readout
Local Sidereal Time
12:56:19
Azimuth
Unknown
Elevation
Unknown
Doppler factor
Unknown
Orbital elements
Apogee altitude
778.876 km
Perigee altitude
576.967 km
Semi-major axis
7,056.059 km
Eccentricity
0.01431
Inclination
98.4253°
RAAN
123.6481°
Arg. of periapsis
7.6345°
True anomaly
352.48668°
Mean anomaly
352.6988°
Eccentric anomaly
352.59312°
Mean motion
3.66184 °/min
Orbital period
98.31 mins
BSTAR
0.00026612
Loading maneuver chart data...
Computing Atmospheric mass density...
Loading historical data...
Loading historical data...
Loading historical data...
Loading historical data...
Loading historical data...
Loading historical data...
Loading historical data...

Documentation

Showing up to 5 results
|